Regional Weather Roundup
Issued by NWS

Home | Current Version | Previous Version | Graphics & Text | Print | Product List | Glossary On
Versions: 1 2 3 4 5 6 7 8 9 10 11 12 13 14 15 16 17 18 19 20 21 22 23 24 25 26 27 28 29 30 31 32 33 34 35 36 37 38 39 40 41 42 43 44 45 46 47 48 49 50
000
ASUS45 KABQ 231010
RWRNM
WEATHER ROUNDUP FOR NEW MEXICO
NATIONAL WEATHER SERVICE ALBUQUERQUE NM
400 AM MDT SAT AUG 23 2014

NOTE: "FAIR" MEANS FEW OR NO CLOUDS BELOW 12,000 FEET AGL WITH NO
       SIGNIFICANT WEATHER OR OBSTRUCTIONS TO VISION.

      THIS PRODUCT IS RELEASED AS TWO VERSIONS.  ONE VERSION NEAR
      THE TOP OF THE HOUR CONTAINING PRELIMINARY DATA FROM ALBUQUERQUE
      AND OTHER STATIONS.  A FINAL VERSION WITH ADDITIONAL DATA IS
      ISSUED ABOUT 10 MINUTES AFTER THE HOUR.

NMZ501-503-504-510>518-231100-
NORTHWEST PLATEAU/NORTHCENTRAL MOUNTAINS

CITY           SKY/WX    TMP DP  RH WIND       PRES   REMARKS
FARMINGTON     CLEAR     54  50  86 E7        30.12F
LOS ALAMOS     CLEAR     54  49  85 CALM      30.25S
SANTA FE       CLEAR     52  50  93 CALM      30.20S
TAOS           CLOUDY    46  45  93 N5        30.25R
ANGEL FIRE     FAIR      45  42  89 SW5       30.29S

$$
NMZ402-403-502-505>509-231100-
WESTCENTRAL MOUNTAINS/SOUTHWEST MOUNTAINS

CITY           SKY/WX    TMP DP  RH WIND       PRES   REMARKS
GALLUP         FAIR      52  46  80 CALM      30.21S
SILVER CITY    FAIR      57  54  88 N9        30.18S

$$
NMZ407-409-411-412-231100-
SOUTHERN DESERTS

CITY           SKY/WX    TMP DP  RH WIND       PRES   REMARKS
LORDSBURG      FAIR      63  55  77 CALM      30.10S
DEMING         FAIR      62  60  93 CALM      30.10S
LAS CRUCES     FAIR      64  60  89 CALM      30.12S
HOLLOMAN AFB   PTCLDY    64  64  99 NW3       30.08R
ALAMOGORDO     CLOUDY    63  59  88 SW3       30.10R
T OR C         FAIR      62  57  83 NW5       30.11F

$$
NMZ519>523-231100-
CENTRAL VALLEYS/CENTRAL HIGHLANDS

CITY           SKY/WX    TMP DP  RH WIND       PRES   REMARKS
ALBUQUERQUE    PTCLDY    59  54  83 CALM      30.16F
DOUBLE EAGLE   CLEAR     53  52  96 CALM      30.19S
MORIARTY ARPT  FAIR      51  48  92 CALM      30.20F
CLINES CORNERS PTCLDY    51  48  89 NW9       30.21F
BELEN          FOG       55  54  99 CALM      30.16S VSB 1
SOCORRO        FAIR      60  59  97 SE3       30.13S

$$
NMZ524>526-539-540-231100-
SOUTHCENTRAL MOUNTAINS

CITY           SKY/WX    TMP DP  RH WIND       PRES   REMARKS
RUIDOSO        CLOUDY    55  54  94 W5        30.25S

$$
NMZ527>531-231100-
NORTHEAST HIGHLANDS/NORTHEAST PLAINS

CITY           SKY/WX    TMP DP  RH WIND       PRES   REMARKS
LAS VEGAS      PTCLDY    51  43  74 S13       30.18S
RATON          PTCLDY    53  48  83 SW6       30.11R
CLAYTON        PTCLDY    63  55  75 SW12      30.03F

$$
NMZ532>537-231100-
EASTCENTRAL PLAINS

CITY           SKY/WX    TMP DP  RH WIND       PRES   REMARKS
TUCUMCARI      PTCLDY    70  57  63 SW17      30.02F
CANNON AFB     MOCLDY    66  62  85 S2        30.08F
CLOVIS AIRPORT   N/A     64  59  82 SW8       30.10F

$$
NMZ028-029-538-231100-
SOUTHEAST PLAINS

CITY           SKY/WX    TMP DP  RH WIND       PRES   REMARKS
ROSWELL        MOCLDY    69  62  78 S7        30.03S
CARLSBAD       MOCLDY    73  64  73 SE7       30.02R
HOBBS          CLOUDY    70  64  83 SW7       30.07R


$$



USA.gov is the U.S. government's official web portal to all federal, state and local government web resources and services.